Home   Weather   Darwin   Past weeks

Flag for Australia Past Weather in Darwin, Northern Territory, Australia — Yesterday and Last 2 Weeks

Now
82 °F

Sprinkles. Broken clouds.


Feels Like: 86 °F
Forecast: 82 / 92 °F
Wind: 5 mph from Northwest

Location: Darwin Airport

Current Time: Dec 15, 2017 at 9:01:07 am

Latest Report: Dec 15, 2017 at 8:16 am


Visibility: N/A

Pressure: 29.80 "Hg

Humidity: 66%

Dew Point: 70 °F

Location of DarwinLocation

Past Weather in Darwin — Graph

°F

Darwin Temperature Yesterday

Maximum temperature yesterday: 91 °F (at 1:30 pm)
Minimum temperature yesterday: 75 °F (at 3:30 am)
Average temperature yesterday: 84 °F

High & Low Weather Summary for the Past Weeks

 TemperatureHumidityPressure
High95 °F (Dec 1, 2:30 pm)100% (Dec 3, 2:00 am)29.89 "Hg (Dec 3, 2:00 am)
Low75 °F (Dec 3, 2:00 am)30% (Dec 5, 11:00 am)29.62 "Hg (Dec 4, 3:00 pm)
Average86 °F71%29.74 "Hg
* Reported Nov 30 7:30 am — Dec 15 7:45 am, Darwin. Weather by CustomWeather, © 2017

Note: Actual official high and low records may vary slightly from our data, if they occured in-between our weather recording intervals... More about our weather records

Advertising

Darwin Weather History for the Previous 24 Hours

Scroll right to see more
 ConditionsComfort  
Time TempWeatherWind HumidityBarometerVisibility
7:45 am
Fri, Dec 15
84 °FSprinkles. Scattered clouds.3 mph84%29.77 "HgN/A
7:30 am84 °FScattered showers. Partly sunny.2 mph84%29.77 "HgN/A
7:00 am84 °FBroken clouds.3 mph84%29.77 "HgN/A
6:30 am82 °FPassing clouds.5 mph89%29.74 "HgN/A
6:00 am82 °FSprinkles. Partly cloudy.5 mph89%29.77 "HgN/A
5:30 am84 °FScattered showers. Passing clouds.6 mph79%29.74 "HgN/A
5:00 am82 °FPassing clouds.6 mph84%29.74 "HgN/A
4:30 am84 °FPassing clouds.6 mph79%29.74 "HgN/A
4:00 am84 °FPassing clouds.7 mph79%29.71 "HgN/A
3:30 am82 °FPassing clouds.7 mph84%29.71 "HgN/A
3:00 am82 °FPassing clouds.7 mph84%29.71 "HgN/A
2:30 am81 °FPassing clouds.5 mph89%29.71 "HgN/A
2:00 am81 °FPassing clouds.6 mph89%29.74 "HgN/A
1:30 am81 °FPassing clouds.5 mph89%29.74 "HgN/A
1:00 am81 °FClear.3 mph89%29.74 "Hg10 mi
12:30 am81 °FClear.3 mph89%29.77 "Hg10 mi
12:00 am81 °FClear.3 mph89%29.77 "Hg10 mi
11:30 pm
Thu, Dec 14
82 °FClear.3 mph84%29.77 "Hg10 mi
11:00 pm82 °FClear.3 mph84%29.74 "Hg10 mi
10:30 pm82 °FClear.3 mph84%29.74 "Hg10 mi
10:00 pm84 °FClear.5 mph74%29.74 "Hg10 mi
9:30 pm84 °FClear.3 mph74%29.74 "Hg10 mi
9:00 pm84 °FPassing clouds.6 mph70%29.74 "HgN/A
8:30 pm86 °FClear.5 mph62%29.71 "Hg10 mi
8:00 pm86 °FClear.5 mph59%29.71 "Hg10 mi
7:30 pm86 °FPartly sunny.6 mph62%29.71 "HgN/A
7:00 pm88 °FPartly sunny.7 mph59%29.71 "HgN/A
6:30 pm88 °FPartly sunny.8 mph59%29.68 "HgN/A
6:00 pm90 °FPartly sunny.10 mph52%29.68 "HgN/A
5:30 pm90 °FPartly sunny.12 mph55%29.68 "HgN/A
5:00 pm90 °FPartly sunny.12 mph55%29.68 "HgN/A
4:30 pm90 °FPartly sunny.10 mph55%29.68 "HgN/A
4:00 pm91 °FPartly sunny.13 mph52%29.68 "HgN/A
3:30 pm90 °FPartly sunny.12 mph59%29.68 "HgN/A
3:00 pm90 °FPartly sunny.10 mph52%29.68 "HgN/A
2:30 pm90 °FPartly sunny.12 mph63%29.71 "HgN/A
2:00 pm90 °FPartly sunny.10 mph59%29.71 "HgN/A
1:30 pm91 °FPartly sunny.6 mph59%29.71 "HgN/A
1:00 pm90 °FPartly sunny.5 mph63%29.74 "HgN/A
12:30 pm88 °FPartly sunny.6 mph66%29.74 "HgN/A
12:00 pm90 °FPartly sunny.3 mph63%29.77 "HgN/A
11:30 am88 °FPartly sunny.6 mph66%29.77 "HgN/A
11:00 am88 °FPartly sunny.7 mph66%29.80 "HgN/A
10:30 am84 °FPartly sunny.7 mph79%29.80 "HgN/A
10:00 am86 °FPartly sunny.7 mph75%29.80 "HgN/A
9:30 am86 °FPartly sunny.6 mph75%29.80 "HgN/A
9:00 am86 °FPartly sunny.2 mph70%29.80 "HgN/A
Weather by CustomWeather, © 2017

See weather overview